Wind_Speed
5 5 5 5 5 5 5 4 4 3 2 1 1 1 1 1 1 1 2 2 2 1 1 1 2 3 3 5 5 5 4 2 1 1 0 1 1 1 2 2 1 2 2 2 2 2 2 3 3 3 3 4 4 4 3 3 3 3 3 3 3 2 2 1 1 1 1 2 2 3 4 4 4 5 5 6 6 6 7 7 8 8 9 10 10
5 5 5 4 4 4 4 4 3 3 2 1 1 0 1 0 1 1 2 2 2 3 2 1 1 2 4 5 4 4 4 3 2 1 1 1 2 2 2 3 2 2 2 2 2 2 2 2 2 2 2 2 2 2 3 2 2 2 2 2 1 1 0 1 1 1 2 2 3 4 4 4 5 5 5 6 6 6 7 7 8 9 10 10 10
5 4 4 3 3 3 3 3 3 3 3 1 1 1 1 1 1 2 2 1 2 3 3 2 1 2 4 5 5 4 4 3 2 2 1 1 2 3 3 3 3 3 3 3 2 2 2 2 2 2 1 1 1 1 1 1 1 1 1 0 0 1 2 2 2 3 3 3 4 4 5 5 5 5 6 6 6 6 7 8 8 9 10 11 11
5 4 3 3 2 2 2 3 3 3 3 1 1 1 1 1 2 2 2 0 1 3 4 2 1 2 4 6 7 5 4 2 2 2 2 1 2 3 4 3 4 4 4 4 3 3 3 2 2 3 3 2 1 1 1 1 1 1 1 1 2 2 3 3 3 4 4 5 5 5 5 5 5 5 6 6 7 7 8 8 9 10 10 11 10
4 4 3 3 3 3 2 2 3 3 2 1 0 1 2 3 2 2 2 0 1 3 4 2 1 2 3 6 7 4 2 0 1 2 2 1 2 3 4 3 3 4 5 5 4 3 4 3 3 3 3 3 3 3 3 3 3 3 2 3 3 4 4 4 4 4 5 5 5 5 5 5 6 6 7 7 8 8 9 9 9 10 10 10 10
6 5 5 5 4 3 2 2 3 3 2 1 1 1 2 3 4 3 3 2 1 2 2 2 1 1 3 6 7 4 1 2 2 1 1 1 1 3 3 3 3 3 4 5 4 4 4 4 3 3 3 4 4 4 4 5 5 5 4 5 5 6 5 6 6 6 6 6 6 6 6 7 7 7 8 8 9 9 9 9 9 9 10 10 10
7 7 6 6 6 4 3 3 3 3 2 2 2 1 2 3 4 3 3 3 2 3 2 2 1 1 3 6 6 3 3 3 3 2 1 0 1 2 3 3 3 3 3 3 4 5 5 5 5 4 4 5 5 5 5 6 6 5 6 6 7 7 7 7 7 8 7 7 7 7 7 8 9 8 9 9 9 9 9 10 9 9 9 9 9
8 8 7 7 7 6 4 4 4 4 3 3 1 0 2 3 4 4 3 3 3 2 2 2 1 1 4 4 3 2 3 5 4 3 2 1 1 1 2 3 3 3 3 3 4 4 5 6 6 5 5 5 5 6 5 5 5 5 6 7 8 8 8 8 8 9 9 8 8 9 8 9 10 9 9 9 8 8 9 9 9 8 8 9 9
9 8 8 8 7 6 5 4 5 5 4 3 1 0 1 2 3 4 3 3 2 1 2 2 0 2 2 2 1 3 4 5 4 3 2 2 2 2 2 2 2 2 2 3 3 4 5 6 6 6 7 6 6 6 6 6 6 6 6 7 8 8 8 8 9 10 10 9 9 9 9 9 9 9 8 8 8 8 8 8 8 8 8 8 7
10 9 8 8 8 7 6 5 5 5 5 3 2 1 0 2 3 4 4 3 2 1 2 3 1 2 2 2 2 3 4 5 5 4 2 2 1 1 2 2 2 2 2 3 3 3 4 5 6 6 7 7 7 7 7 6 6 7 6 7 7 7 8 8 8 9 9 9 8 8 8 8 8 8 8 7 7 7 7 8 8 8 7 6 6
10 9 8 8 8 7 7 6 6 5 4 4 3 2 1 1 2 3 3 4 3 2 3 3 0 2 3 3 3 3 3 4 4 3 2 1 1 1 2 2 2 3 3 2 3 3 4 4 5 6 7 8 8 7 7 6 7 7 7 7 7 7 7 7 7 7 8 8 7 7 7 6 6 7 7 7 7 7 7 7 7 6 5 5 4
11 11 9 8 8 8 8 7 7 6 5 5 4 3 2 1 1 1 2 2 2 2 2 3 1 2 3 3 3 2 2 3 3 2 2 1 1 2 2 2 2 3 3 3 3 3 4 4 4 5 6 7 8 8 8 7 8 7 7 7 7 6 6 7 7 7 7 6 6 7 6 6 6 6 6 6 6 6 6 6 5 4 3 3 4
12 12 10 9 8 9 9 8 8 8 6 5 4 3 3 2 3 2 1 1 0 1 1 3 3 2 3 3 2 1 1 1 1 0 0 1 2 2 2 2 2 2 3 3 3 4 4 4 4 4 5 6 6 7 8 8 8 8 8 7 7 7 7 7 7 7 6 5 6 6 6 5 5 5 5 5 5 5 5 4 2 2 3 4 4
12 12 11 10 10 9 10 9 9 8 7 6 5 4 4 4 4 2 2 2 1 1 1 2 2 2 3 2 1 1 0 1 1 1 2 2 2 3 3 3 2 2 3 3 4 4 4 4 4 4 4 5 5 6 6 6 7 8 8 8 8 8 8 7 6 7 6 5 5 5 4 5 5 4 5 5 5 4 2 0 2 3 3 3 3
13 13 13 12 11 10 10 10 10 9 8 7 6 6 6 5 4 3 2 2 2 2 2 2 2 3 3 1 0 0 1 1 2 3 3 3 3 4 4 4 4 4 5 5 4 4 5 5 4 4 4 4 5 6 6 5 6 7 8 8 7 7 7 6 6 6 6 5 4 4 4 4 5 5 5 5 3 1 2 3 4 4 3 3 3
13 13 14 14 13 12 11 11 11 10 9 8 8 7 7 6 5 5 4 4 2 2 4 4 3 3 2 1 1 1 1 0 2 3 4 4 4 4 5 5 5 6 7 6 5 5 6 6 5 5 5 5 5 6 6 6 6 6 6 6 6 6 6 6 6 6 5 5 5 5 5 5 5 6 5 4 2 3 4 5 4 4 3 3 3
13 14 14 15 14 13 12 11 11 11 10 9 8 8 7 7 6 6 6 5 3 2 4 5 4 4 2 1 0 1 1 1 2 3 4 5 5 4 6 6 6 7 8 8 7 7 7 7 7 6 6 6 6 6 6 6 6 5 4 5 6 6 6 5 6 7 6 5 6 6 6 6 5 5 4 4 4 5 5 5 4 4 3 3 3
13 13 14 15 15 14 13 12 11 11 10 10 9 8 8 8 7 6 6 6 5 4 4 5 5 5 4 3 3 2 1 2 2 1 2 5 5 6 6 6 7 8 9 9 8 8 8 8 8 8 7 7 6 6 6 6 7 6 4 5 6 6 5 5 6 7 6 6 6 7 7 6 4 4 4 5 5 5 5 5 4 4 4 3 1
15 14 14 15 15 14 14 13 12 11 11 11 11 9 8 8 8 7 6 7 6 5 5 5 5 6 6 6 4 3 2 2 3 3 2 3 4 6 6 7 7 8 9 8 8 8 8 8 8 8 8 8 7 7 7 6 6 6 5 6 6 5 4 4 5 6 7 7 7 7 7 5 4 4 5 6 5 5 5 5 5 4 3 2 1
16 16 15 15 15 15 15 14 13 12 11 12 12 11 9 8 8 8 7 7 7 6 6 5 5 5 6 7 7 6 5 4 3 4 4 3 3 4 5 6 8 8 8 8 7 8 9 9 9 8 9 9 8 8 8 7 7 6 5 5 4 4 4 4 4 5 6 6 7 7 6 5 5 5 5 6 6 6 5 5 5 4 3 3 2
18 18 17 16 16 16 16 15 14 13 12 12 12 12 11 9 9 8 8 7 7 7 7 7 7 6 5 7 7 7 7 6 5 5 5 4 4 4 4 5 6 7 8 9 8 9 10 10 10 9 9 9 9 9 8 8 8 6 5 5 4 4 4 4 4 5 5 6 6 6 6 6 6 6 6 6 6 6 6 6 5 5 4 4 3
20 20 19 18 18 18 17 17 16 15 14 13 12 13 13 11 9 9 8 8 8 8 8 8 8 8 6 6 6 6 6 6 6 6 5 4 5 6 6 6 6 6 6 8 9 9 10 11 12 11 11 11 10 10 9 9 8 7 6 6 6 6 6 5 5 5 6 6 6 7 7 7 7 7 7 6 6 7 7 7 7 6 6 5 4
22 22 21 20 20 20 19 18 18 17 16 14 13 12 12 12 11 9 9 9 8 8 8 9 9 10 9 8 6 6 6 6 6 5 6 6 5 7 8 7 8 8 8 10 11 11 12 13 13 13 13 13 12 12 11 10 9 8 7 7 7 8 8 7 7 7 7 7 7 7 7 8 8 8 8 8 8 8 8 8 8 7 7 6 5
24 24 23 22 21 21 20 19 19 19 17 15 14 12 11 12 12 11 10 10 9 8 9 9 10 10 10 9 8 7 7 7 7 6 7 7 7 8 9 7 7 9 9 10 12 11 12 13 14 14 15 14 14 13 13 12 12 10 9 9 8 8 9 9 9 8 8 8 8 9 9 9 10 10 10 10 10 10 10 10 10 9 8 7 7
26 26 25 23 23 22 21 20 19 19 18 16 15 12 11 12 13 13 12 11 10 9 9 9 10 10 10 9 9 9 9 8 8 8 8 8 7 8 9 7 8 9 8 8 10 10 11 12 13 13 13 14 14 14 14 14 14 12 11 11 10 10 10 10 10 10 10 10 10 10 11 11 11 12 12 12 12 12 12 12 11 11 10 9 9
27 27 25 24 23 22 22 20 19 19 18 17 16 14 12 12 12 13 13 12 11 10 10 10 10 10 10 10 10 10 10 9 9 9 9 8 8 8 8 7 8 9 8 7 8 9 9 10 13 13 13 13 13 13 14 14 14 13 12 13 14 13 12 12 11 11 11 12 12 12 13 13 13 14 14 14 14 14 14 14 13 12 12 11 11
28 27 26 24 23 23 22 21 20 20 19 18 17 16 14 12 10 10 11 12 12 11 11 11 11 11 11 11 11 10 11 11 10 10 10 9 9 8 7 6 7 8 8 7 8 10 10 10 13 13 11 11 12 12 13 13 14 14 14 15 17 16 15 15 15 14 14 13 14 14 14 15 15 15 15 15 16 16 16 15 15 14 14 13 13
29 28 26 25 24 23 23 22 21 20 19 19 18 18 16 12 8 9 10 11 11 11 11 11 12 11 11 12 13 12 12 11 11 11 11 11 10 9 8 7 6 6 7 7 7 9 9 8 10 11 11 9 8 9 11 13 15 15 15 17 19 19 18 17 17 17 17 16 16 16 16 17 17 18 17 17 17 17 17 17 17 17 16 16 16
29 28 26 26 25 24 24 23 22 21 20 20 19 18 18 14 10 9 10 11 11 11 11 12 12 12 11 12 13 14 13 13 13 12 13 13 13 12 11 10 8 6 6 6 7 8 8 7 8 10 11 9 7 9 10 12 13 15 17 18 19 20 20 20 20 20 20 20 20 19 19 19 19 20 20 20 20 20 20 20 20 19 19 19 19
29 28 27 27 25 25 24 24 23 22 21 20 20 19 19 16 12 10 10 10 10 11 11 12 13 13 12 12 14 14 14 14 13 13 14 14 14 15 14 13 12 9 8 7 8 10 11 9 8 9 10 12 13 15 16 15 14 14 17 18 19 20 20 21 22 22 23 23 23 23 22 22 22 22 22 22 22 22 22 22 22 22 22 22 21
30 29 28 26 26 26 25 25 24 24 23 21 21 20 20 17 13 11 11 10 10 12 12 13 13 14 14 14 15 16 15 15 14 14 15 15 15 15 15 15 15 14 12 9 8 10 10 9 9 11 14 19 21 21 21 19 17 16 17 19 20 20 20 22 23 23 24 25 25 26 26 25 25 25 24 24 24 24 24 24 24 24 23 23 23
30 29 28 27 27 26 25 25 24 24 24 23 22 21 21 19 15 13 12 12 12 13 13 14 15 15 15 16 17 18 17 17 16 16 16 16 16 16 16 17 17 17 15 11 10 14 15 14 16 17 17 21 24 24 22 21 20 19 18 20 21 21 22 23 24 24 24 25 26 27 27 28 28 28 28 27 27 26 26 26 26 26 25 25 24
30 29 29 28 28 27 26 25 24 24 24 23 23 22 22 21 19 16 14 13 13 14 13 13 14 16 17 17 18 19 18 18 18 17 16 16 17 17 18 18 17 17 16 13 13 17 20 18 20 23 22 22 25 26 25 24 24 22 21 21 22 22 24 25 25 26 25 25 25 26 27 29 29 30 30 30 30 29 29 29 28 28 27 26 26
31 30 29 29 29 28 27 26 26 25 24 24 23 22 22 22 21 19 17 16 15 15 15 14 14 16 18 19 19 19 18 19 19 17 15 15 15 15 17 18 17 17 18 17 15 15 19 20 19 22 25 26 28 28 28 27 26 25 24 24 25 25 25 26 27 28 28 27 26 26 27 28 29 31 32 32 32 32 31 31 30 30 29 28 27
30 31 30 29 30 29 28 27 27 26 25 24 23 23 23 23 22 21 20 20 20 19 18 18 17 17 18 20 20 18 17 19 20 18 15 15 15 15 16 18 19 18 19 21 19 16 19 21 19 19 20 22 27 30 30 29 28 27 27 28 29 29 29 28 28 30 31 30 29 28 28 29 30 31 32 33 34 34 34 33 32 31 30 30 29
28 32 32 30 30 29 28 28 28 27 26 25 24 24 24 23 23 22 22 23 23 23 22 21 19 19 20 20 20 18 17 19 20 17 15 16 17 18 18 19 21 21 20 22 23 21 19 20 22 22 22 24 29 31 30 30 30 30 30 31 31 31 32 31 31 32 34 34 33 31 31 31 32 32 33 34 34 35 35 35 34 32 32 31 31
27 30 31 31 30 30 29 28 28 28 28 27 26 25 24 24 24 23 23 24 24 24 25 24 22 22 22 22 21 19 18 19 20 17 15 16 18 18 19 19 20 21 20 21 24 23 21 20 23 25 26 28 30 32 32 31 29 28 29 32 32 33 34 33 33 35 36 36 36 35 34 34 35 35 35 35 35 36 36 36 35 35 33 32 32
26 27 29 31 31 30 30 29 29 29 29 28 27 27 25 24 24 24 24 25 26 26 26 25 25 24 24 24 23 22 20 20 20 18 17 17 18 18 19 20 20 19 19 20 21 22 21 22 23 24 25 24 24 28 32 31 27 24 25 28 31 33 34 33 33 35 37 37 36 36 36 36 36 37 37 37 37 37 37 37 37 37 35 34 33
26 25 27 30 32 31 30 30 30 29 29 28 28 28 26 25 26 26 26 25 26 26 27 26 25 24 24 24 24 23 23 23 22 21 19 18 19 20 21 21 20 19 18 18 19 20 20 21 21 22 22 22 21 24 28 28 26 24 24 25 26 30 32 33 33 34 34 35 36 36 36 37 38 38 38 38 38 38 38 39 39 39 38 36 35
27 26 26 28 31 31 30 30 30 29 29 28 28 28 29 28 27 27 27 27 26 25 26 27 25 24 23 23 23 23 24 25 25 24 22 20 19 20 21 20 19 18 18 18 18 20 20 21 22 22 21 21 21 21 22 21 20 23 24 23 23 27 30 31 30 31 32 34 36 35 32 33 38 40 39 39 38 38 39 40 41 41 40 39 38
28 27 26 25 27 29 30 29 29 27 26 27 28 29 29 29 28 27 26 27 26 25 25 25 25 24 24 23 23 23 24 26 27 25 25 23 22 22 20 18 17 18 19 20 20 20 20 21 22 23 22 22 20 17 16 16 17 22 23 20 21 24 26 26 26 29 34 35 34 34 32 32 38 40 38 38 38 37 38 39 41 42 43 43 41
28 27 26 24 25 27 27 27 26 25 25 27 29 30 30 29 27 26 25 27 27 25 25 25 23 23 23 23 24 25 27 28 28 27 27 27 27 26 25 22 20 19 19 20 21 21 21 22 22 22 23 24 21 16 15 17 18 20 20 17 18 21 21 22 23 25 30 31 29 32 35 35 35 36 35 36 37 37 38 40 40 41 42 43 43
28 27 27 26 25 25 24 24 24 24 25 28 31 31 31 30 28 26 24 25 26 26 25 25 23 22 21 22 24 26 28 29 29 29 29 28 28 29 29 28 26 25 24 23 22 22 22 23 24 23 23 24 24 19 17 18 18 18 17 16 17 18 18 19 19 18 22 27 26 27 34 36 35 35 36 37 37 37 39 42 41 39 38 40 42
27 27 26 27 27 25 23 23 23 23 25 29 32 32 31 31 30 28 25 23 22 23 24 24 23 21 21 21 22 23 26 28 28 28 29 29 29 29 29 29 29 30 30 29 27 26 25 24 25 26 25 26 26 23 20 19 19 18 19 19 18 18 19 20 20 18 21 26 25 23 30 34 31 32 38 40 39 41 43 45 43 39 37 38 39
26 26 26 27 26 26 24 24 24 24 24 27 31 32 32 31 31 30 28 25 22 22 22 22 22 22 22 22 22 23 26 28 29 29 29 30 30 29 29 30 30 31 32 32 32 32 32 31 29 29 28 26 25 24 23 24 24 21 21 22 20 20 20 21 23 24 26 29 26 21 26 31 26 25 35 40 41 44 47 45 43 40 38 37 36
25 26 28 27 26 26 26 25 25 25 25 27 31 32 32 32 31 30 31 29 26 24 24 23 23 23 23 23 23 25 26 27 29 31 30 30 28 26 25 26 28 29 29 31 32 33 35 36 36 35 33 30 30 31 30 29 29 27 26 27 27 25 26 28 32 32 31 32 31 24 25 31 26 24 33 39 38 42 47 46 43 40 38 37 34
26 27 28 27 26 26 26 26 25 25 27 30 32 33 32 32 31 30 31 31 30 27 26 26 25 25 24 24 24 26 26 26 28 30 30 29 26 23 22 23 23 23 23 26 29 31 33 35 37 38 37 36 36 36 33 31 29 30 31 33 32 30 32 36 37 34 30 31 32 27 27 31 26 23 33 37 31 34 44 45 40 38 37 36 35
24 25 27 26 26 26 27 27 26 26 28 30 32 34 33 32 31 30 31 32 32 30 28 28 28 27 26 25 25 27 27 27 30 32 31 31 28 25 23 23 23 23 22 24 27 31 33 33 34 35 34 34 34 33 32 31 31 33 35 35 33 31 32 32 32 32 31 28 28 27 27 31 29 25 32 35 27 28 39 41 37 38 37 35 35
24 24 25 25 26 26 26 27 27 27 28 29 33 34 33 32 31 31 33 33 32 32 31 30 29 28 29 29 28 28 27 27 31 32 31 31 31 29 25 23 23 23 23 23 25 29 31 30 30 30 30 31 31 31 31 31 31 33 35 36 35 33 30 25 23 28 31 28 28 25 24 30 31 26 29 32 27 26 32 34 33 35 35 34 35
25 25 24 25 25 26 26 26 28 28 27 28 32 34 33 32 32 32 33 33 32 32 32 32 32 31 32 32 31 30 29 30 32 32 31 31 32 32 28 24 23 24 24 23 23 24 26 25 25 25 26 28 29 30 32 32 31 31 33 37 37 33 26 20 20 25 26 29 34 30 25 30 33 28 28 31 28 27 31 35 36 34 33 34 34
26 24 24 23 24 24 25 26 28 29 26 25 30 33 33 32 32 33 33 32 29 29 29 29 29 30 32 34 34 33 33 33 32 31 31 31 32 32 28 23 23 25 24 22 22 23 23 23 23 24 25 27 28 31 33 33 31 30 31 35 37 33 27 24 25 22 19 22 30 29 24 29 32 28 26 23 21 21 25 30 33 34 35 36 34
Wind_Direction
169 169 172 178 190 196 195 197 201 205 207 198 203 247 228 191 195 196 177 175 185 209 237 287 321 335 330 327 322 310 311 281 207 166 191 129 135 163 191 212 197 187 186 153 141 128 100 82 73 72 76 80 84 82 83 86 82 88 93 96 99 99 93 74 56 32 19 359 352 352 355 360 2 2 358 357 353 350 349 348 348 347 345 345 347
169 164 163 169 183 187 189 195 207 211 212 244 217 114 75 155 170 162 150 161 188 207 214 225 268 323 333 334 332 313 304 285 243 194 225 170 147 173 205 220 223 215 198 173 160 167 159 136 113 83 70 69 82 83 81 80 76 82 93 99 101 98 47 305 309 320 320 317 327 332 337 344 346 346 346 345 341 339 340 341 342 340 341 342 343
174 166 162 173 186 183 188 199 208 216 223 252 219 87 72 84 100 119 106 137 208 210 209 214 235 305 329 331 333 327 313 287 237 200 209 203 159 171 205 224 221 212 202 204 193 198 212 186 171 162 144 104 73 71 75 88 81 83 99 118 252 283 288 294 297 301 304 309 317 323 328 333 334 335 334 332 330 329 331 333 335 335 336 339 340
186 181 182 202 214 205 205 204 211 220 221 227 205 58 63 73 80 95 93 127 236 213 211 215 225 296 322 324 330 331 319 290 207 192 195 203 174 173 197 221 220 209 210 217 202 219 243 225 210 205 186 196 212 232 257 268 279 278 279 286 284 288 292 296 301 301 303 308 316 319 321 322 319 317 317 318 319 320 324 329 332 333 334 339 343
210 211 220 238 242 229 217 200 203 209 205 193 124 52 55 60 63 76 97 122 234 199 205 211 221 298 318 324 335 344 336 346 160 183 183 196 192 183 194 208 219 218 222 226 212 221 250 251 245 240 222 223 223 226 237 248 252 249 258 269 272 273 281 287 289 290 292 298 304 307 305 303 303 305 307 310 312 313 317 322 328 331 334 340 344
234 237 240 249 254 242 224 205 195 194 198 176 130 88 65 60 61 69 92 109 126 159 179 204 220 320 321 331 347 9 55 85 109 141 152 181 194 191 203 209 219 226 229 232 227 229 244 251 247 249 248 247 251 250 246 248 251 249 248 253 260 266 268 272 275 278 282 285 288 292 293 296 301 305 307 307 307 310 314 318 324 327 331 336 341
245 248 247 249 255 253 233 211 202 199 202 184 158 109 61 61 68 74 89 102 109 130 146 176 166 342 322 337 355 23 72 76 76 92 110 147 177 192 212 226 237 252 260 255 247 243 246 253 254 253 254 255 261 265 258 259 268 269 263 262 268 273 271 273 278 280 278 279 285 288 290 295 300 303 305 306 306 309 314 318 321 326 331 334 337
249 250 251 251 250 253 237 214 214 214 213 204 178 86 50 59 72 84 93 93 96 117 142 156 131 326 323 340 2 43 74 72 75 87 84 92 135 170 204 231 246 259 274 279 273 262 259 259 256 257 259 261 265 270 270 271 279 278 274 275 280 282 281 281 282 280 278 279 285 288 290 294 297 298 301 304 304 307 313 319 323 328 332 334 340
249 253 257 254 246 247 233 214 217 219 225 226 217 275 40 59 69 81 89 84 83 117 157 166 191 330 342 4 45 76 74 69 76 81 72 93 131 157 187 221 245 253 258 273 275 270 271 268 263 262 264 266 266 271 275 278 281 279 279 284 288 288 287 282 277 277 281 285 286 286 288 291 293 294 296 300 302 307 314 319 324 330 335 340 349
247 253 257 252 241 236 227 215 214 220 229 232 237 266 342 65 61 62 66 67 64 88 154 174 234 26 76 108 111 88 73 66 68 66 75 107 143 168 197 215 229 239 239 254 266 265 269 269 267 265 264 265 263 267 271 272 275 279 283 287 290 289 284 282 281 282 285 286 285 283 285 292 295 296 300 303 306 311 316 320 325 334 339 344 349
244 248 251 248 237 227 223 216 216 222 226 229 240 258 284 26 37 39 50 61 59 76 138 165 150 59 96 117 114 88 67 61 60 56 79 119 178 195 217 230 231 244 248 248 255 259 263 260 258 257 260 261 260 261 265 268 270 275 281 283 285 287 286 288 288 288 287 285 286 285 286 294 299 302 304 305 309 314 316 319 324 331 337 345 359
240 241 241 241 235 227 223 220 223 226 224 226 235 249 264 302 317 338 42 62 47 61 135 170 165 99 109 117 117 96 62 51 51 52 72 125 193 202 209 230 239 244 253 252 243 248 257 255 252 251 255 258 257 255 255 260 266 273 278 281 285 289 293 297 295 294 292 289 291 288 288 295 298 298 300 302 306 308 310 317 325 335 1 30 37
239 236 233 235 234 227 224 224 227 227 225 225 226 238 248 266 286 291 280 252 307 23 119 170 172 152 131 121 119 110 57 25 35 85 172 200 213 223 219 225 239 245 254 257 253 252 256 260 259 258 258 262 260 254 253 256 261 269 274 279 287 290 293 295 294 296 295 290 291 288 286 293 292 290 294 296 293 294 302 318 348 53 72 62 49
237 234 232 234 236 230 225 225 227 227 227 227 225 232 240 256 275 272 273 267 236 278 196 164 185 171 153 156 150 145 208 300 276 221 219 224 227 238 239 241 244 246 254 261 268 265 261 262 263 267 267 267 267 263 262 261 263 270 274 279 283 285 286 283 280 289 291 288 286 281 276 280 279 276 280 280 276 283 297 25 107 103 90 73 59
235 234 234 236 237 234 230 228 229 227 229 232 235 239 241 250 259 253 263 264 235 233 209 189 179 146 152 181 160 291 236 222 239 230 227 236 241 248 253 258 258 258 263 265 269 267 266 268 270 277 277 270 270 270 273 272 272 275 276 279 282 284 284 270 257 268 280 280 274 266 264 268 268 263 263 263 263 254 159 137 128 115 101 89 75
235 235 237 240 241 238 235 234 233 231 231 235 239 243 245 249 251 249 248 245 234 213 204 205 193 168 159 115 82 296 278 124 247 236 232 242 246 252 260 266 266 268 274 271 268 268 270 275 282 289 292 289 281 277 280 280 279 280 280 282 286 291 288 265 245 248 262 268 261 259 262 263 260 253 251 244 216 169 152 144 138 127 115 103 91
236 238 241 242 242 241 239 238 236 235 233 235 238 238 240 241 245 247 246 248 255 227 209 210 208 200 182 143 200 284 3 6 301 242 228 243 249 252 262 269 269 273 280 278 277 278 276 279 289 296 300 302 294 286 288 288 288 286 280 281 286 292 289 270 251 247 252 255 254 258 261 259 256 245 231 207 177 165 156 149 145 137 129 119 103
237 239 242 243 242 242 243 240 238 235 233 234 234 233 232 231 237 242 241 246 254 247 225 215 218 218 212 236 271 300 351 326 311 291 242 245 248 253 259 263 267 274 280 278 279 282 282 284 292 297 300 303 302 299 299 299 299 292 276 276 282 287 285 268 257 252 251 250 248 252 255 253 248 227 200 183 175 170 163 158 155 151 148 139 119
236 236 240 243 242 242 244 243 240 238 236 234 232 230 227 225 231 236 237 243 245 244 237 221 224 229 226 234 243 247 266 288 303 319 309 257 245 255 259 259 265 272 274 273 273 276 281 286 289 292 299 305 307 307 305 306 308 298 280 275 275 276 274 261 253 250 250 252 247 246 250 247 229 207 189 182 184 180 175 174 171 167 165 169 198
234 233 237 243 244 244 246 246 245 244 241 236 233 230 227 227 229 231 237 245 242 240 242 232 232 236 231 232 237 246 260 275 285 296 304 301 277 262 259 262 268 269 269 270 268 268 275 281 283 285 294 301 305 306 305 306 313 307 286 274 270 270 267 256 251 248 247 250 245 241 243 237 217 206 197 192 195 192 190 189 185 185 193 209 237
233 233 236 243 247 248 249 250 249 249 246 240 236 233 231 230 229 228 235 245 244 239 239 238 239 240 235 235 240 249 259 263 265 268 275 288 295 294 286 278 275 272 272 272 268 268 272 277 280 280 283 290 292 296 300 303 309 310 295 280 275 278 276 270 264 257 249 243 240 238 237 232 221 214 209 207 209 210 208 204 203 209 216 226 243
234 235 238 242 247 250 251 252 252 252 250 244 240 238 236 233 230 228 231 238 243 241 239 241 242 242 241 240 238 243 253 255 256 262 267 269 280 295 298 294 294 293 288 284 275 271 271 274 278 278 276 280 281 284 288 293 298 301 295 284 276 278 281 282 279 269 260 248 240 238 236 235 230 224 222 223 227 227 223 221 222 225 229 236 248
234 236 239 241 244 247 251 253 253 252 251 248 246 242 237 234 233 230 228 232 236 238 241 244 244 244 242 243 244 245 253 260 264 271 277 278 281 292 297 299 301 297 292 296 291 281 276 277 277 275 275 276 276 276 278 280 283 286 286 282 277 278 280 283 283 277 270 261 249 241 238 238 238 236 236 237 239 238 236 236 237 238 241 249 265
233 235 239 240 241 244 248 251 251 251 250 249 249 246 238 235 235 234 231 229 231 234 240 242 243 245 243 242 246 251 256 262 268 272 277 283 286 289 293 297 295 288 287 296 296 285 278 277 276 276 278 276 273 271 271 272 274 272 273 274 273 275 279 281 282 280 276 268 260 250 243 241 241 243 246 247 246 244 244 245 247 248 250 261 276
230 233 236 238 240 241 245 248 249 250 250 248 249 249 244 239 237 237 234 231 230 230 238 243 245 248 247 245 245 250 255 257 264 269 272 275 271 275 284 287 286 288 289 290 292 289 282 280 281 284 283 279 275 270 266 265 267 266 265 267 268 267 269 272 274 276 276 271 266 259 252 248 245 246 249 251 251 249 250 250 250 252 256 265 276
231 234 236 237 239 240 243 248 249 248 249 248 247 249 249 246 242 240 237 236 235 232 237 243 247 251 252 252 251 251 256 258 262 267 269 270 268 271 281 282 282 287 285 279 282 286 285 287 293 295 290 284 277 270 265 262 263 264 262 263 266 265 263 264 266 268 270 270 267 263 259 255 251 250 250 250 251 250 251 252 252 254 258 265 273
234 237 238 237 239 240 243 247 249 248 249 248 247 248 249 246 241 240 238 239 238 234 237 240 245 252 254 257 259 256 259 263 264 266 269 272 273 276 280 284 288 289 287 281 274 273 273 282 295 299 296 290 280 271 266 263 262 262 261 261 263 264 263 262 263 263 265 265 265 264 262 259 256 254 252 250 250 250 250 251 252 255 259 263 269
237 240 241 239 239 240 242 245 248 249 250 250 247 248 248 241 233 237 237 237 236 233 236 239 242 248 252 256 260 260 262 266 266 267 271 273 273 273 268 269 281 291 295 291 281 278 271 272 290 300 303 304 298 286 275 268 265 264 263 262 262 264 264 263 262 263 263 262 262 261 260 260 259 257 255 253 252 252 252 252 254 256 259 263 266
239 241 241 240 240 240 242 244 247 248 250 252 249 248 248 242 233 235 236 236 238 236 235 240 242 244 246 251 257 261 263 269 270 269 272 276 275 272 265 260 261 273 292 294 287 286 278 268 278 291 299 310 315 309 298 285 277 272 269 267 266 267 267 266 265 263 263 262 261 260 259 258 258 258 258 257 256 256 256 256 257 259 262 264 266
237 239 240 241 241 241 242 243 245 248 249 251 251 249 247 243 235 236 238 236 239 240 237 239 242 244 246 248 254 259 261 266 269 268 270 275 274 271 266 258 251 252 265 281 287 283 275 271 270 271 286 298 302 303 302 298 290 280 275 272 270 270 270 270 268 266 264 263 262 261 260 259 258 258 259 258 258 258 258 259 260 261 262 264 266
235 238 239 240 241 242 243 244 245 247 248 249 251 250 247 243 236 235 238 236 238 239 239 241 243 246 248 249 254 258 261 265 267 265 268 272 272 269 266 261 254 249 249 259 278 275 264 265 268 268 281 291 295 297 296 295 293 284 278 275 274 274 272 270 268 266 265 264 263 262 261 260 260 259 259 259 259 258 258 259 260 260 260 262 265
233 235 237 238 240 242 243 244 243 245 247 247 248 249 248 244 239 235 236 238 240 239 240 243 246 249 252 252 256 259 262 265 266 267 269 271 271 267 265 263 260 254 247 243 258 268 265 266 272 275 280 287 292 294 293 294 294 289 282 279 278 278 275 273 272 271 269 267 265 264 263 262 261 260 260 260 260 259 258 257 258 259 259 260 262
231 233 235 237 239 241 242 243 243 244 246 246 245 246 247 246 244 241 239 239 239 240 241 242 245 251 255 255 258 262 263 264 264 264 265 269 271 268 265 263 259 254 250 241 250 269 274 272 275 279 281 284 289 292 293 295 296 296 291 286 283 281 279 279 280 280 278 275 272 270 268 266 264 262 261 260 260 259 259 257 256 257 258 259 260
231 232 235 237 239 241 241 243 245 245 247 246 244 243 245 247 246 244 244 243 241 242 242 242 244 251 256 259 261 262 263 265 265 260 257 259 262 262 262 262 259 255 254 251 249 263 275 276 277 282 285 286 288 290 292 293 294 295 293 290 287 284 282 282 282 284 284 282 280 277 275 272 269 265 262 260 260 259 259 258 257 256 257 257 258
229 232 234 236 239 241 241 243 245 246 247 247 243 242 244 246 246 245 247 249 249 248 248 250 251 253 257 262 262 260 259 265 268 263 255 255 256 257 257 260 262 260 258 260 255 254 268 276 277 278 281 283 286 289 291 292 292 290 289 289 288 286 285 284 283 284 285 285 284 282 280 277 274 270 266 262 259 259 259 258 258 257 256 256 256
225 232 234 235 237 240 241 242 245 246 246 246 244 243 245 247 248 248 250 253 255 255 255 255 255 255 258 262 263 261 259 264 268 264 256 256 260 262 261 260 264 263 259 261 261 256 261 272 276 276 278 280 284 288 289 290 290 290 288 288 287 285 285 285 283 283 284 284 283 282 281 279 276 272 268 264 261 258 258 257 257 257 256 255 255
221 228 232 233 235 237 239 241 245 246 246 245 244 244 244 247 249 249 251 255 257 258 259 259 259 259 260 261 264 263 259 262 266 263 257 259 261 262 261 260 262 264 261 261 263 261 257 263 271 276 278 280 283 286 287 287 287 289 290 290 289 287 285 283 282 283 285 284 282 282 281 280 278 274 270 266 263 260 257 256 256 255 255 254 253
218 222 228 232 233 235 238 240 243 245 245 245 245 246 245 245 249 249 250 254 257 258 259 259 260 261 261 263 264 263 259 259 261 261 260 261 262 261 261 263 263 264 263 261 263 262 257 259 268 273 276 277 278 283 286 286 284 283 286 288 289 288 286 284 282 283 286 286 284 283 283 282 281 278 275 270 266 262 259 257 255 254 253 252 251
216 218 223 230 233 236 238 239 241 243 244 244 245 247 246 244 247 249 250 251 254 256 257 258 257 257 259 261 263 263 262 262 263 263 262 261 263 265 266 267 265 264 263 260 260 261 259 261 266 269 272 275 274 277 282 285 283 280 279 279 282 285 286 285 283 283 285 286 286 286 285 285 284 282 279 276 271 266 262 259 256 254 252 251 249
216 218 220 226 232 235 236 237 239 240 241 242 243 245 246 245 245 247 249 250 251 252 255 257 256 254 254 256 258 259 262 266 267 267 264 261 261 264 266 265 262 261 262 263 264 265 266 268 270 271 271 272 271 273 279 281 277 277 277 274 273 279 284 285 283 283 285 285 284 284 281 281 285 284 280 277 274 270 266 261 257 254 251 250 248
217 218 219 221 226 230 232 233 234 233 234 237 239 241 242 243 243 244 246 249 249 249 251 254 254 253 253 253 254 257 260 266 270 271 270 267 262 261 262 261 260 261 262 264 266 269 270 271 274 277 275 273 270 268 271 269 267 275 279 271 268 276 281 282 279 281 286 285 282 280 278 276 280 282 279 277 277 276 274 268 261 256 253 250 247
218 218 218 217 220 225 227 228 229 227 228 233 238 240 240 240 241 241 243 247 249 249 249 251 251 251 252 253 256 261 265 269 272 274 274 272 269 267 265 263 260 260 263 266 269 271 273 274 277 279 279 279 278 271 268 271 272 277 278 269 269 276 279 278 276 277 284 286 281 279 281 281 279 277 275 274 277 279 278 275 270 264 259 255 251
218 218 217 217 218 221 222 223 224 224 227 235 240 242 242 242 241 240 241 246 248 249 249 250 250 250 251 254 259 264 269 272 274 275 276 275 273 272 271 269 265 262 261 264 268 271 272 274 278 279 278 281 284 278 273 277 278 277 276 272 272 276 275 277 279 277 280 286 283 277 281 285 280 275 274 273 274 277 277 276 274 270 267 262 256
216 216 217 218 220 221 220 222 224 224 229 237 241 243 244 244 243 241 240 242 244 246 246 247 249 250 251 254 258 261 266 270 273 275 277 277 277 276 276 274 271 268 265 262 263 266 267 271 276 278 277 281 285 283 277 277 280 280 281 279 274 272 271 273 278 278 278 284 282 272 276 281 276 270 273 273 273 275 277 275 272 269 268 265 261
215 216 218 219 220 220 220 221 224 226 231 238 243 245 245 245 244 242 241 241 241 243 245 245 247 249 250 253 255 258 264 269 273 274 274 275 278 279 279 278 275 273 271 267 265 264 264 265 268 272 274 275 279 281 278 278 282 282 280 280 277 274 270 269 274 279 281 283 279 267 270 276 269 262 269 273 273 277 278 276 272 268 265 263 263
213 215 218 219 219 220 220 222 225 228 232 238 243 246 246 245 245 243 242 242 241 243 245 246 246 247 249 252 254 259 263 267 271 274 274 273 272 273 275 276 275 275 275 274 273 270 266 263 262 265 269 271 274 278 279 279 281 281 279 278 278 278 276 275 278 281 282 280 276 268 269 272 265 257 266 271 273 276 279 277 273 269 265 261 261
213 216 219 219 220 221 221 223 225 229 233 238 242 245 246 245 244 243 243 243 242 244 245 245 246 247 249 250 253 259 261 262 267 272 274 273 270 266 267 270 271 272 272 272 275 277 274 270 268 269 271 274 276 278 279 279 279 280 280 279 279 280 281 281 283 283 280 277 272 265 267 272 265 254 265 272 270 272 278 279 273 269 266 261 257
215 217 219 219 220 221 222 222 224 229 234 237 240 244 246 245 242 241 242 242 242 243 244 246 246 248 250 249 252 257 258 260 266 272 275 274 271 266 266 269 271 271 270 271 276 279 280 279 278 278 279 282 283 282 283 283 281 281 282 281 280 279 278 279 282 281 281 280 271 260 261 272 270 260 266 273 267 265 274 276 273 272 270 262 256
215 216 217 219 220 221 222 220 222 227 232 236 239 242 244 243 239 238 239 240 241 243 245 247 248 249 251 251 252 255 256 259 266 272 276 276 272 267 267 269 271 274 278 279 279 280 283 285 286 287 289 290 291 291 289 287 285 283 280 277 278 277 274 274 276 277 279 280 274 262 254 264 271 267 268 272 266 259 265 269 270 271 269 264 259
216 217 218 219 220 221 221 220 222 226 229 234 239 242 242 241 238 237 238 238 239 242 245 248 250 252 255 256 255 254 255 260 266 271 274 273 270 269 268 268 272 278 282 283 281 283 288 290 292 294 295 295 296 296 293 291 289 285 276 273 276 276 272 269 270 273 275 274 276 274 260 259 268 269 269 275 271 259 258 265 270 269 266 264 261
216 218 219 218 219 221 221 222 226 228 229 232 238 242 242 240 237 235 235 235 236 239 243 247 249 252 255 258 259 258 258 262 266 270 272 270 268 267 266 268 273 278 279 279 281 286 290 292 294 295 295 295 296 296 295 294 292 287 278 275 277 274 268 266 267 272 275 273 278 280 267 263 270 270 266 272 277 268 262 264 267 266 263 262 258
Height
871 872 872 873 874 874 875 876 876 877 878 878 879 879 879 879 879 880 880 880 880 881 881 882 882 882 882 882 882 882 882 883 883 884 884 884 885 885 885 886 886 887 887 888 888 889 889 889 889 890 890 890 890 891 891 891 891 891 892 892 892 892 892 892 892 892 892 891 891 891 891 891 891 890 890 890 889 889 889 888 887 887 886 885 884
872 872 873 873 874 875 876 876 877 877 878 878 879 879 879 879 879 880 880 880 881 881 881 882 882 882 882 882 882 882 882 883 884 884 884 885 885 885 886 886 887 887 888 888 888 889 889 890 890 890 890 891 891 891 891 891 892 892 892 892 892 892 892 892 892 892 892 892 891 891 891 891 891 890 890 890 889 889 888 888 887 887 886 885 884
872 873 873 874 875 876 876 877 877 877 878 878 879 879 879 879 879 880 880 880 880 881 881 882 882 882 882 882 882 882 883 883 884 884 885 885 885 886 886 886 887 887 888 888 889 889 889 890 890 890 891 891 891 891 891 892 892 892 892 892 892 892 892 892 892 892 892 892 892 892 891 891 891 890 890 889 889 889 888 888 887 886 885 885 884
872 873 874 875 875 876 877 877 877 878 878 878 878 879 879 879 879 880 880 880 880 880 881 882 882 882 882 882 882 882 882 883 884 884 885 885 885 886 886 886 887 887 887 888 889 889 889 890 890 890 891 891 891 892 892 892 892 892 892 892 892 892 892 892 892 892 892 892 892 892 891 891 891 890 890 889 889 888 888 887 887 886 885 884 883
873 874 874 875 876 876 877 877 877 878 878 878 879 879 879 879 880 880 880 880 880 880 881 882 882 882 882 882 882 882 883 883 884 884 885 885 885 886 886 887 887 887 887 888 889 889 889 890 890 890 890 891 891 891 892 892 892 892 892 892 892 892 892 892 892 892 892 892 891 891 891 890 890 890 889 889 888 888 887 887 886 885 885 884 883
873 874 874 875 876 876 877 877 877 878 878 878 879 879 880 880 880 880 880 880 881 881 881 882 882 882 882 882 882 882 882 883 884 885 885 886 886 886 887 887 887 887 888 888 888 889 889 889 890 890 890 890 891 891 892 892 892 892 892 891 891 891 891 892 891 891 891 891 891 891 890 890 890 889 889 888 888 887 887 886 885 885 884 883 882
873 874 874 875 876 876 877 877 877 877 878 878 879 880 880 880 880 881 881 881 881 881 881 882 882 882 882 882 882 882 883 884 884 885 885 886 886 886 887 887 888 888 888 888 888 889 889 889 890 890 890 890 890 891 891 891 891 891 891 891 891 891 891 891 891 891 891 891 890 890 890 889 889 888 888 887 887 886 886 885 885 884 883 883 882
873 874 875 875 876 876 877 877 877 877 878 878 879 880 880 880 881 881 881 881 881 881 882 882 882 882 882 882 882 883 883 884 884 885 886 886 886 886 887 888 888 888 888 888 888 888 889 889 889 889 890 890 890 890 890 890 890 890 890 890 890 890 890 890 890 890 890 890 889 889 889 888 888 888 887 887 886 886 885 885 884 883 883 882 882
873 874 874 875 876 876 877 877 877 878 878 879 879 880 880 881 881 881 881 882 882 882 882 882 882 882 882 883 883 883 884 884 885 885 885 886 886 887 887 887 888 888 888 888 889 888 888 888 889 889 889 889 889 890 889 889 889 889 889 889 889 889 889 889 889 889 889 889 888 888 888 887 887 887 886 886 885 885 884 884 883 883 883 882 881
873 873 874 875 876 876 877 877 877 878 878 879 879 880 880 881 881 881 881 882 882 882 882 882 882 882 883 883 883 884 884 885 885 885 886 886 886 887 887 887 888 888 888 888 888 888 888 888 888 888 888 888 888 889 889 889 888 888 888 888 888 888 888 888 888 888 888 887 887 887 887 886 886 886 885 885 885 884 884 883 883 883 882 882 881
872 873 874 875 875 876 877 877 878 878 878 879 879 880 880 881 881 881 881 882 882 882 882 883 883 883 883 883 883 884 885 885 885 885 886 886 886 887 887 887 887 887 888 888 888 888 888 887 887 887 887 887 887 887 887 887 887 887 887 887 887 887 887 887 887 887 887 886 886 886 886 886 885 885 885 884 884 884 883 883 882 882 882 882 881
872 873 874 875 875 876 876 877 877 878 878 879 879 880 880 881 881 881 882 882 882 882 883 883 883 883 883 884 884 884 885 885 885 886 886 886 886 887 887 887 887 887 887 887 887 887 887 887 886 886 886 886 886 886 886 886 886 886 886 886 886 886 886 886 886 886 886 885 885 885 885 885 885 884 884 883 883 883 882 882 882 882 882 881 881
871 872 873 874 875 876 876 877 877 877 878 878 879 879 880 881 881 881 882 882 883 883 883 883 883 883 884 884 885 885 885 885 886 886 886 886 886 886 887 887 887 887 887 886 886 886 886 886 886 886 885 885 885 885 885 885 885 885 885 885 886 886 886 886 886 885 885 885 884 884 884 884 883 883 883 882 882 882 882 881 881 881 881 881 881
870 871 872 873 874 875 876 876 877 877 878 878 878 879 879 880 881 881 882 882 883 883 883 883 883 883 884 884 885 885 885 885 885 886 886 886 886 886 886 886 887 886 886 886 885 885 885 885 885 885 885 885 885 884 884 884 884 884 885 885 885 885 885 885 885 884 884 884 883 883 883 882 882 882 881 881 881 881 881 881 881 881 881 881 881
869 870 871 872 873 874 875 876 876 877 877 878 878 878 879 880 881 881 882 882 882 882 883 883 883 884 884 885 885 885 885 885 885 885 885 886 886 886 886 886 886 886 885 885 885 885 885 885 885 885 884 884 884 884 884 884 884 884 884 884 884 884 883 883 883 883 882 882 882 881 881 881 881 881 880 880 880 880 880 880 880 881 881 881 881
868 869 870 871 872 873 874 875 876 876 877 877 878 878 879 879 880 881 881 882 882 882 883 883 883 884 884 885 885 886 887 885 884 885 885 885 885 885 885 885 885 885 885 885 885 885 884 884 884 884 884 884 884 884 883 884 883 883 883 883 883 883 882 882 882 882 881 881 881 880 880 880 880 880 880 879 880 880 880 880 880 881 880 880 880
867 868 869 870 871 872 873 874 875 876 876 877 878 878 879 879 880 881 881 882 882 882 882 883 883 883 884 885 886 887 887 884 884 884 884 884 884 884 884 884 884 884 884 884 884 884 884 884 884 884 884 883 883 883 883 883 883 883 883 882 882 881 881 881 881 881 881 880 880 879 879 879 879 879 879 879 879 880 880 880 880 880 880 880 880
865 867 868 869 870 871 872 873 874 875 875 876 877 878 878 879 879 880 881 881 882 882 882 883 883 883 883 884 885 886 885 884 885 885 883 883 883 883 883 883 883 883 883 883 883 883 883 883 883 883 883 883 883 883 883 882 882 882 882 881 881 880 880 880 880 880 880 879 879 879 879 879 879 879 879 879 879 879 880 880 880 880 880 879 879
864 865 866 867 868 869 871 872 873 874 874 875 876 877 878 878 879 880 880 880 881 881 882 882 883 883 883 884 884 884 885 885 885 885 885 883 882 882 882 881 882 882 882 882 882 883 883 883 883 883 882 882 882 882 882 882 881 881 881 880 880 880 879 879 879 878 878 878 879 878 878 879 879 879 879 879 879 879 879 879 879 879 879 879 879
862 864 865 866 867 868 869 870 872 873 873 874 875 876 877 878 878 878 879 879 880 881 881 881 882 882 883 883 884 884 884 884 884 884 885 884 881 880 880 881 881 881 881 881 882 882 882 882 882 882 882 882 881 881 881 881 880 880 880 879 879 879 878 878 877 877 877 878 878 878 878 878 878 878 878 878 878 878 879 879 879 879 878 878 878
860 862 863 864 865 867 868 869 870 871 872 873 874 875 876 876 877 877 878 878 879 880 880 881 881 882 882 883 883 884 884 884 884 883 883 883 882 879 879 880 880 880 880 880 881 881 881 881 881 881 881 881 881 880 880 880 880 879 879 878 878 877 877 877 877 876 877 877 877 878 878 878 878 878 878 878 878 878 878 878 878 878 878 878 877
858 860 861 862 863 865 866 867 869 870 871 872 873 874 874 875 876 876 877 877 878 879 880 880 880 881 881 882 883 883 883 883 883 882 881 882 882 879 878 878 878 879 879 880 880 880 880 880 880 880 880 880 880 879 879 879 879 878 878 877 877 876 876 876 876 876 876 876 876 877 877 877 877 877 877 878 877 878 877 877 877 877 877 877 877
856 857 859 860 861 863 864 866 867 868 870 871 872 872 873 874 875 875 876 876 877 878 878 879 879 880 880 881 881 882 882 882 881 881 881 881 881 879 878 878 878 878 878 878 878 878 878 878 878 879 878 878 878 878 878 878 877 877 876 876 876 876 876 876 876 876 876 876 876 876 876 876 877 877 877 877 877 877 877 877 877 877 877 877 876
854 855 856 858 859 861 862 864 865 866 868 869 870 871 872 873 873 874 875 875 876 877 877 878 878 879 879 880 880 880 880 881 880 881 881 880 881 880 878 878 878 877 877 877 877 877 877 877 877 876 876 876 876 876 876 876 876 876 875 875 875 875 875 875 875 875 875 875 875 875 875 875 876 876 876 876 876 876 876 876 876 876 876 876 876
851 852 854 856 857 859 860 862 863 864 866 868 869 870 871 871 872 872 873 874 875 875 876 876 877 877 878 878 879 879 879 879 880 880 880 880 880 879 878 878 878 876 876 876 875 875 875 874 874 874 874 874 874 874 874 874 874 874 874 874 874 874 874 874 874 874 874 874 874 874 874 874 874 874 874 875 875 875 875 875 875 875 875 875 875
848 850 852 854 856 857 859 860 861 863 864 866 867 868 869 870 870 871 872 873 873 874 874 875 875 876 876 877 877 878 878 878 878 879 879 879 879 878 878 878 877 875 875 874 874 873 873 872 872 872 872 872 872 872 872 872 872 872 873 873 873 873 873 873 873 873 873 873 873 873 873 873 873 873 873 873 873 873 873 873 873 874 873 873 873
846 848 850 852 854 855 857 858 859 861 862 864 865 866 868 868 869 870 871 871 872 872 873 873 874 874 875 875 876 876 876 876 877 877 877 878 877 878 877 877 876 874 873 872 872 871 871 871 870 870 870 870 870 870 870 870 871 871 871 871 871 871 871 872 871 871 871 871 871 871 871 871 871 871 871 871 871 871 871 871 871 871 871 871 870
844 846 848 849 851 853 855 856 857 859 860 861 863 864 865 867 868 869 869 870 870 870 871 871 872 873 873 874 874 874 874 875 875 875 876 876 876 877 877 877 877 876 873 871 870 869 869 869 869 868 868 868 868 868 869 869 869 869 869 869 869 869 869 869 869 869 869 869 869 869 869 869 868 868 868 869 869 868 869 869 868 868 868 867 867
842 844 846 847 849 850 852 854 855 857 858 859 860 862 863 865 866 867 868 868 868 869 869 870 870 871 871 872 872 872 872 873 873 874 874 874 875 875 875 875 876 875 875 873 869 867 867 867 867 866 866 867 867 867 867 867 867 867 867 867 867 866 866 866 866 866 866 866 866 866 866 866 866 866 866 866 866 866 866 866 865 865 864 864 863
840 842 843 845 847 848 850 852 853 855 856 857 858 860 861 863 864 865 866 866 867 867 867 868 868 869 869 870 870 870 870 871 872 872 872 873 873 873 874 874 874 874 874 873 869 865 865 866 865 865 865 865 865 865 865 865 865 865 865 865 864 864 863 863 863 863 862 862 862 863 863 863 863 863 863 863 863 863 863 862 862 861 861 860 860
837 839 841 843 844 846 847 849 851 852 854 855 856 858 859 860 862 863 864 864 865 865 865 865 866 867 867 867 867 867 868 869 869 870 870 871 871 871 871 871 872 872 872 872 869 864 863 864 863 863 863 862 862 863 862 862 863 863 863 862 861 861 860 860 859 859 859 859 859 859 859 860 860 860 860 860 859 859 859 858 858 857 857 857 857
834 837 839 840 842 843 845 847 848 850 851 853 854 855 857 858 859 861 861 862 862 863 863 863 864 864 864 865 865 865 866 866 867 868 868 868 869 869 870 869 869 870 870 871 868 862 861 862 861 861 861 860 860 860 860 860 860 860 860 859 858 858 857 856 855 855 855 855 855 856 856 856 856 856 856 856 855 855 854 854 854 853 853 853 853
831 834 836 837 839 841 842 844 845 847 848 850 852 853 855 856 857 858 859 859 860 860 861 861 861 862 862 862 862 862 863 864 864 865 865 866 867 867 867 867 867 867 867 868 867 861 858 859 859 858 858 858 857 857 857 857 857 856 856 856 855 854 853 852 852 852 852 852 852 852 852 852 852 852 852 851 851 850 849 849 849 849 849 849 850
828 831 833 834 836 838 840 841 842 844 845 847 849 850 852 853 854 855 856 857 857 857 858 858 858 859 859 859 860 860 861 861 861 863 863 864 864 864 865 865 864 865 865 865 865 862 857 856 856 856 855 855 854 853 854 854 853 853 852 851 851 850 850 850 849 848 848 848 848 848 848 848 848 847 847 846 846 845 845 844 845 845 845 846 846
826 828 830 832 833 835 837 838 839 841 842 844 846 847 849 850 851 853 853 854 854 855 855 855 856 857 857 857 857 858 858 858 858 860 861 861 862 862 862 862 862 862 862 862 862 860 857 853 853 854 853 852 851 850 850 850 850 849 849 848 847 846 846 846 846 845 844 843 844 844 844 843 843 842 841 841 840 840 840 840 841 841 842 842 843
822 824 826 828 830 832 834 835 836 838 839 841 843 844 846 847 848 850 850 851 851 852 852 853 853 854 854 854 855 855 856 856 856 857 858 859 859 859 859 859 858 859 859 859 858 857 856 852 851 851 850 849 848 847 847 846 846 845 845 844 844 843 842 843 842 841 840 839 839 840 840 839 837 836 835 834 834 834 835 835 836 837 837 838 838
819 821 823 825 827 828 830 832 833 835 836 838 840 841 843 844 845 847 848 848 849 849 849 850 851 851 852 852 852 853 853 853 853 854 855 855 856 856 856 856 856 855 856 856 854 854 853 851 848 847 847 846 844 844 844 843 842 842 841 840 839 839 838 838 838 836 835 834 834 834 834 833 831 830 829 829 829 829 829 830 831 831 832 832 833
816 818 819 821 823 825 826 828 830 831 833 835 837 838 840 841 842 844 845 845 846 846 847 847 848 848 849 849 849 850 850 850 850 851 852 852 853 853 853 853 853 853 853 852 851 851 850 848 846 844 843 842 841 840 840 840 840 839 838 837 835 834 833 833 833 832 830 829 829 828 828 827 825 823 823 823 823 824 824 824 824 825 826 827 827
812 814 816 817 819 821 823 825 826 828 830 832 834 835 837 838 840 841 842 842 843 843 844 844 845 845 846 846 846 846 846 846 847 848 849 849 849 849 849 849 850 850 850 849 849 848 847 845 844 841 840 839 838 837 836 837 837 836 836 834 832 830 829 828 828 828 827 826 824 823 822 820 818 817 816 817 817 818 818 818 818 819 820 821 821
808 810 812 814 816 818 820 821 823 825 827 829 830 832 833 835 836 837 838 839 840 840 840 841 842 842 843 843 843 843 843 843 843 845 846 846 846 846 846 847 847 847 847 846 846 845 844 843 841 839 837 835 834 833 834 834 833 832 832 831 829 826 825 824 823 823 823 822 819 818 816 815 812 810 809 809 809 810 811 811 811 812 813 814 815
805 807 809 811 813 814 816 817 819 821 823 825 826 828 829 831 833 834 835 836 836 837 837 838 838 839 839 840 840 840 839 839 840 841 842 843 843 843 843 844 845 844 843 843 843 842 841 840 838 836 835 832 831 830 831 831 830 828 828 828 826 823 822 820 819 818 817 816 814 812 811 810 807 804 804 803 803 804 804 804 804 806 806 807 808
802 804 806 808 810 811 813 814 816 818 819 820 821 823 825 827 829 831 832 832 833 834 834 835 835 836 836 837 836 836 836 836 836 837 837 838 838 839 840 841 842 842 841 840 840 839 838 836 834 833 831 829 828 828 828 827 827 825 825 825 823 821 820 816 813 812 812 811 810 807 805 805 804 802 800 799 798 799 799 798 798 799 801 802 804
799 801 803 805 806 808 809 811 813 814 815 815 817 819 821 823 826 828 829 829 830 830 831 831 832 833 833 833 833 833 832 832 832 832 833 833 834 834 835 836 838 838 837 837 837 836 835 833 831 830 828 826 826 827 825 824 824 823 822 822 820 818 817 813 809 808 807 807 807 804 800 799 800 798 795 793 793 794 792 790 790 792 795 796 797
795 798 800 801 803 805 807 808 809 810 811 811 813 815 817 819 821 824 825 826 827 827 828 828 829 830 830 831 831 830 829 828 829 829 828 828 829 830 831 832 833 833 833 833 833 833 832 830 827 826 826 824 823 824 824 822 821 821 820 819 818 816 814 810 807 805 804 803 803 801 796 793 793 792 788 786 787 787 784 781 783 786 789 790 790
792 794 796 798 800 802 803 804 806 807 807 808 809 811 813 815 817 820 821 823 823 824 824 825 826 826 827 827 828 827 826 825 825 825 825 825 825 825 826 827 827 827 828 828 828 828 827 827 825 823 822 822 821 821 822 820 819 819 817 815 815 813 810 807 804 802 801 800 799 797 792 788 789 788 782 778 780 780 777 776 778 780 782 785 788
789 790 792 795 796 798 799 801 802 803 804 804 805 807 809 811 813 816 817 819 820 820 820 821 822 822 823 824 824 823 823 823 822 821 821 821 822 822 822 822 822 823 823 823 823 822 822 822 821 818 818 819 818 818 819 818 817 816 815 812 811 810 808 804 800 799 798 796 794 792 787 782 784 783 776 772 773 773 771 770 772 774 775 779 784
785 786 788 791 792 794 796 797 798 799 800 800 802 803 805 807 810 812 813 814 815 816 816 817 818 818 819 820 820 820 820 820 819 818 818 818 818 819 820 820 820 820 819 818 817 816 816 816 816 814 814 815 815 814 815 815 814 813 811 809 808 807 805 800 796 794 794 792 790 788 782 777 778 777 770 768 769 767 765 764 766 769 770 772 776
781 782 784 786 788 790 791 793 794 795 795 796 798 799 801 804 806 808 809 810 811 812 812 813 814 814 815 816 816 816 816 816 815 815 814 814 815 816 816 816 816 816 816 816 814 812 812 812 811 811 811 811 811 810 811 811 810 809 808 805 804 804 802 798 793 789 787 787 785 784 779 773 774 772 765 763 765 762 759 760 761 763 765 766 767
777 779 780 782 783 785 786 788 789 790 791 792 793 795 797 800 803 804 805 806 807 808 808 809 810 810 811 812 812 813 813 812 812 811 811 811 811 812 812 813 812 812 812 812 811 809 808 808 807 807 807 806 806 805 806 806 805 805 805 801 799 799 798 795 791 786 782 780 780 780 776 770 769 768 762 758 759 758 755 756 756 757 758 759 760
772 774 776 777 779 780 781 783 784 785 786 788 789 791 793 796 798 800 801 803 803 804 804 805 806 806 806 807 808 809 809 808 808 808 808 809 808 808 809 810 809 809 809 809 808 806 805 805 804 804 803 802 801 800 800 800 800 801 801 797 795 795 794 791 788 783 778 774 773 775 773 766 765 765 760 755 753 750 750 750 752 753 753 753 754
768 770 772 773 774 775 777 778 779 781 782 784 785 786 789 791 794 796 797 799 799 800 801 801 802 802 802 802 803 804 804 804 804 804 805 805 805 805 806 808 807 806 805 805 805 804 803 803 802 801 800 799 798 796 795 795 795 796 795 793 792 792 790 787 784 781 774 767 767 771 769 763 762 761 759 756 749 743 743 745 746 748 748 748 750